Tracking 17149 objects as of 22-May-2015
HD Live streaming from Space Station

SCOUT X-4 DEB

Track SCOUT X-4 DEB now!
10-day predictions
SCOUT X-4 DEB is classified as:


NORAD ID: 2088
Int'l Code: 1965-093D
Perigee: 666.6 km
Apogee: 777.2 km
Inclination: 59.7 °
Period: 99.1 minutes
Semi major axis: 7092 km
RCS: 0.0298 m2 (small)
Launch date: November 19, 1965
Source: United States (US)

Note: This is SATELLITE DEBRIS
Your satellite tracking list
Your tracking list is empty





NASA's NSSDC Master Catalog

Two Line Element Set (TLE):
1 02088U 65093D   15141.11681283  .00000732  00000-0  20604-3 0  9990
2 02088 059.7202 215.5063 0078007 242.7428 116.5654 14.53336172585762

Source of the keplerian elements: AFSPC

N2YO: 450